Retour au catalogue

SL-8 R/B

ActifLEO
NORAD 4391·ROCKET BODY·🇷🇺 Russia

Lancé Apr 25, 1970 depuis Plesetsk Cosmodrome

Loading…

Prochains Passages (prochaines 24 heures)

TLE

FraisSource: Space-Track

Époque: Sep 14, 2026, 03:28 UTC

1 04391U 70036J   26257.14489463  .00000015  00000-0  24017-3 0  9997
2 04391  74.0291 148.7153 0075605  59.0815  92.8318 12.34993949542018

Suivez SL-8 R/B en temps réel avec AllMySat

Download on the App Store